When you browse on this site, cookies collect data to enhance your experience and personalize the content and advertising you see.
Visit our Privacy Policy to learn more. By continuing to use the site, you agree to this use of cookies and data.
  • In Lithuania
  • List of Countries
  • For 7 days
  • Water Temperature
  • Satellite Maps
  • Weather Map
  • Weather Widgets
  • user-avatar
    Login

    Hourly Weather Stepanovo

    Today, 22 July, Monday

    Time Temperature Precipitation Wind Pressure Humidity
    00:00 +12°C° 0 mm 1 mps 748 mmHg 83%
    01:00 +11°C° 0 mm 0 mps 748 mmHg 84%
    02:00 +10°C° 0 mm 0 mps 748 mmHg 84%
    03:00 +11°C° 0 mm 0 mps 748 mmHg 81%
    04:00 +13°C° 0 mm 1 mps 748 mmHg 78%
    05:00 +14°C° 0 mm 1 mps 749 mmHg 75%
    06:00 +16°C° 0 mm 1 mps 748 mmHg 67%
    07:00 +19°C° 0 mm 1 mps 748 mmHg 58%
    08:00 +21°C° 0 mm 1 mps 748 mmHg 50%
    09:00 +23°C° 0 mm 1 mps 748 mmHg 46%
    10:00 +24°C° 0 mm 1 mps 748 mmHg 42%
    11:00 +25°C° 0 mm 1 mps 748 mmHg 38%
    12:00 +26°C° 0 mm 1 mps 748 mmHg 37%
    13:00 +26°C° 0 mm 1 mps 747 mmHg 35%
    14:00 +26°C° 0 mm 1 mps 747 mmHg 34%
    15:00 +25°C° 0 mm 2 mps 747 mmHg 37%
    16:00 +25°C° 0 mm 2 mps 747 mmHg 39%
    17:00 +24°C° 0 mm 2 mps 747 mmHg 42%
    18:00 +21°C° 0 mm 2 mps 746 mmHg 50%
    19:00 +19°C° 0 mm 2 mps 746 mmHg 58%
    20:00 +17°C° 0 mm 2 mps 746 mmHg 66%
    21:00 +15°C° 0 mm 1 mps 746 mmHg 68%
    22:00 +14°C° 0 mm 1 mps 746 mmHg 69%
    23:00 +13°C° 0 mm 1 mps 746 mmHg 70%

    Tomorrow, 23 July, Tuesday

    Time Temperature Precipitation Wind Pressure Humidity
    00:00 +13°C° 0 mm 1 mps 746 mmHg 72%
    01:00 +12°C° 0 mm 1 mps 746 mmHg 74%
    02:00 +11°C° 0 mm 1 mps 746 mmHg 77%
    03:00 +12°C° 0 mm 1 mps 746 mmHg 75%
    04:00 +12°C° 0 mm 1 mps 746 mmHg 74%
    05:00 +13°C° 0 mm 1 mps 746 mmHg 73%
    06:00 +15°C° 0 mm 1 mps 746 mmHg 65%
    07:00 +19°C° 0 mm 1 mps 746 mmHg 58%
    08:00 +21°C° 0 mm 1 mps 746 mmHg 51%
    09:00 +23°C° 0 mm 1 mps 746 mmHg 46%
    10:00 +24°C° 0 mm 1 mps 746 mmHg 41%
    11:00 +26°C° 0 mm 1 mps 746 mmHg 36%
    12:00 +26°C° 0 mm 1 mps 746 mmHg 35%
    13:00 +27°C° 0 mm 1 mps 746 mmHg 34%
    14:00 +27°C° 0 mm 1 mps 745 mmHg 32%
    15:00 +27°C° 0 mm 1 mps 746 mmHg 35%
    16:00 +26°C° 0 mm 1 mps 746 mmHg 38%
    17:00 +25°C° 0 mm 1 mps 746 mmHg 41%
    18:00 +23°C° 0 mm 1 mps 746 mmHg 50%
    19:00 +21°C° 0 mm 1 mps 746 mmHg 58%
    20:00 +19°C° 0 mm 1 mps 745 mmHg 67%
    21:00 +18°C° 0 mm 1 mps 746 mmHg 70%
    22:00 +16°C° 0 mm 1 mps 746 mmHg 73%
    23:00 +15°C° 0 mm 1 mps 746 mmHg 77%

    Day after tomorrow, 24 July, Wednesday

    Time Temperature Precipitation Wind Pressure Humidity
    00:00 +15°C° 0 mm 1 mps 746 mmHg 78%
    01:00 +14°C° 0 mm 1 mps 746 mmHg 79%
    02:00 +14°C° 0 mm 1 mps 746 mmHg 80%
    03:00 +14°C° 0 mm 1 mps 746 mmHg 78%
    04:00 +14°C° 0 mm 1 mps 747 mmHg 77%
    05:00 +15°C° 0 mm 1 mps 747 mmHg 75%
    06:00 +18°C° 0 mm 1 mps 747 mmHg 67%
    07:00 +20°C° 0 mm 1 mps 747 mmHg 60%
    08:00 +23°C° 0 mm 1 mps 747 mmHg 52%
    09:00 +24°C° 0 mm 1 mps 747 mmHg 48%
    10:00 +26°C° 0 mm 1 mps 748 mmHg 44%
    11:00 +26°C° 0 mm 0 mps 748 mmHg 39%
    12:00 +25°C° 0 mm 0 mps 748 mmHg 39%
    13:00 +25°C° 0 mm 0 mps 747 mmHg 38%
    14:00 +25°C° 0 mm 0 mps 747 mmHg 37%
    15:00 +27°C° 0 mm 1 mps 747 mmHg 37%
    16:00 +26°C° 0 mm 1 mps 747 mmHg 38%
    17:00 +26°C° 0 mm 1 mps 748 mmHg 38%
    18:00 +24°C° 0 mm 1 mps 748 mmHg 45%
    19:00 +21°C° 0 mm 1 mps 748 mmHg 52%
    20:00 +19°C° 0 mm 1 mps 748 mmHg 59%
    21:00 +18°C° 0 mm 1 mps 748 mmHg 61%
    22:00 +16°C° 0 mm 1 mps 748 mmHg 62%
    23:00 +15°C° 0 mm 1 mps 748 mmHg 64%

    25 July, Thursday

    Time Temperature Precipitation Wind Pressure Humidity
    00:00 +15°C° 0 mm 1 mps 748 mmHg 67%
    01:00 +14°C° 0 mm 1 mps 749 mmHg 69%
    02:00 +14°C° 0 mm 1 mps 749 mmHg 72%
    03:00 +14°C° 0 mm 1 mps 749 mmHg 71%
    04:00 +15°C° 0 mm 1 mps 749 mmHg 70%
    05:00 +15°C° 0 mm 1 mps 749 mmHg 69%
    06:00 +17°C° 0 mm 2 mps 749 mmHg 65%
    07:00 +19°C° 0 mm 2 mps 749 mmHg 61%
    08:00 +21°C° 0 mm 2 mps 749 mmHg 57%
    09:00 +23°C° 0 mm 2 mps 750 mmHg 54%
    10:00 +25°C° 0 mm 3 mps 750 mmHg 52%
    11:00 +26°C° 0 mm 3 mps 750 mmHg 49%
    12:00 +26°C° 0 mm 3 mps 750 mmHg 47%
    13:00 +27°C° 0 mm 4 mps 750 mmHg 45%
    14:00 +27°C° 0 mm 4 mps 750 mmHg 43%
    15:00 +27°C° 0 mm 4 mps 750 mmHg 43%
    16:00 +26°C° 0 mm 3 mps 750 mmHg 44%
    17:00 +26°C° 0 mm 3 mps 750 mmHg 44%
    18:00 +24°C° 0 mm 3 mps 750 mmHg 53%
    19:00 +20°C° 0 mm 2 mps 750 mmHg 61%
    20:00 +19°C° 0 mm 1 mps 750 mmHg 70%
    21:00 +18°C° 0 mm 1 mps 751 mmHg 72%
    22:00 +16°C° 0 mm 1 mps 751 mmHg 74%
    23:00 +15°C° 0 mm 1 mps 751 mmHg 76%

    26 July, Friday

    Time Temperature Precipitation Wind Pressure Humidity
    00:00 +15°C° 0 mm 1 mps 751 mmHg 76%
    01:00 +14°C° 0 mm 1 mps 751 mmHg 76%
    02:00 +14°C° 0 mm 1 mps 751 mmHg 76%
    03:00 +13°C° 0 mm 0 mps 751 mmHg 75%
    04:00 +14°C° 0 mm 0 mps 752 mmHg 74%
    05:00 +15°C° 0 mm 0 mps 752 mmHg 74%
    06:00 +17°C° 0 mm 0 mps 752 mmHg 67%
    07:00 +21°C° 0 mm 1 mps 752 mmHg 60%
    08:00 +23°C° 0 mm 1 mps 751 mmHg 53%
    09:00 +24°C° 0 mm 1 mps 751 mmHg 49%
    10:00 +26°C° 0 mm 1 mps 751 mmHg 45%
    11:00 +27°C° 0 mm 2 mps 751 mmHg 41%
    12:00 +28°C° 0 mm 2 mps 750 mmHg 40%
    13:00 +28°C° 0 mm 2 mps 750 mmHg 40%
    14:00 +29°C° 0 mm 2 mps 749 mmHg 39%
    15:00 +28°C° 0 mm 2 mps 749 mmHg 47%
    16:00 +26°C° 0 mm 1 mps 748 mmHg 55%
    17:00 +25°C° 0 mm 1 mps 748 mmHg 63%
    18:00 +24°C° 0.1 mm 1 mps 748 mmHg 69%
    19:00 +23°C° 0.1 mm 1 mps 747 mmHg 75%
    20:00 +22°C° 0.1 mm 1 mps 747 mmHg 81%
    21:00 +21°C° 0.3 mm 1 mps 747 mmHg 86%
    22:00 +19°C° 0.3 mm 2 mps 746 mmHg 91%
    23:00 +18°C° 0.3 mm 2 mps 746 mmHg 95%

    27 July, Saturday

    Time Temperature Precipitation Wind Pressure Humidity
    00:00 +17°C° 0.6 mm 2 mps 746 mmHg 96%
    01:00 +17°C° 0.6 mm 2 mps 745 mmHg 96%
    02:00 +16°C° 0.6 mm 1 mps 745 mmHg 97%
    03:00 +16°C° 0.1 mm 2 mps 745 mmHg 97%
    04:00 +16°C° 0.1 mm 2 mps 745 mmHg 96%
    05:00 +17°C° 0.1 mm 2 mps 744 mmHg 96%
    06:00 +18°C° 0 mm 2 mps 745 mmHg 92%
    07:00 +19°C° 0 mm 3 mps 745 mmHg 88%
    08:00 +21°C° 0 mm 3 mps 745 mmHg 84%
    09:00 +21°C° 0 mm 4 mps 745 mmHg 76%
    10:00 +22°C° 0 mm 4 mps 745 mmHg 68%
    11:00 +23°C° 0 mm 4 mps 745 mmHg 60%
    12:00 +23°C° 0 mm 4 mps 746 mmHg 59%
    13:00 +23°C° 0 mm 5 mps 746 mmHg 58%
    14:00 +23°C° 0 mm 5 mps 746 mmHg 57%
    15:00 +22°C° 0 mm 5 mps 746 mmHg 59%
    16:00 +21°C° 0 mm 4 mps 746 mmHg 61%
    17:00 +20°C° 0 mm 4 mps 746 mmHg 64%
    18:00 +19°C° 0 mm 4 mps 746 mmHg 67%
    19:00 +17°C° 0 mm 3 mps 746 mmHg 71%
    20:00 +16°C° 0 mm 3 mps 746 mmHg 74%
    21:00 +14°C° 0 mm 3 mps 747 mmHg 74%
    22:00 +14°C° 0 mm 2 mps 747 mmHg 73%
    23:00 +13°C° 0 mm 2 mps 747 mmHg 72%
    Show more